SCP
0 0 0 0 0 0 0 0 0 0 0 0 0 0 0 0 0 0 0 0 0 0 0 0 0 0 0 0 0 0 0 0 0 0 0 0 0 0 0 0 0 0 0
0 0 0 0 0 0 0 0 0 0 0 0 0 0 0 0 0 0 0 0 0 0 0 0 0 0 0 0 0 0 0 0 0 0 0 0 0 0 0 0 0 0 0
0 0 0 0 0 0 0 0 0 0 0 0 0 0 0 0 0 0 0 0 0 0 0 0 0 0 0 0 0 0 0 0 0 0 0 0 0 0 0 0 0 0 0
0 0 0 0 0 0 0 0 0 0 0 0 0 0 0 0 0 0 0 0 0 0 0 0 0 0 0 0 0 0 0 0 0 0 0 0 0 0 0 0 0 0 0
0 0 0 0 0 0 0 0 0 0 0 0 0 0 0 0 0 0 0 0 0 0 0 0 0 0 0 0 0 0 0 0 0 0 0 0 0 0 0 0 0 0 0
0 0 0 0 0 0 0 0 0 0 0 0 0 0 0 0 0 0 0 0 0 0 0 0 0 0 0 0 0 0 0 0 0 0 0 0 0 0 0 0 0 0 0
0 0 0 0 0 0 0 0 0 0 0 0 0 0 0 0 0 0 0 0 0 0 0 0 0 0 0 0 0 0 0 0 0 0 0 0 0 0 0 0 0 0 0
0 0 0 0 0 0 0 0 0 0 0 0 0 0 0 0 0 0 0 0 0 0 0 0 0 0 0 0 0 0 0 0 0 0 0 0 0 0 0 0 0 0 0
0 0 0 0 0 0 0 0 0 0 0 0 0 0 0 0 0 0 0 0 0 0 0 0 0 0 0 0 0 0 0 0 0 0 0 0 0 0 0 0 0 0 0
0 0 0 0 0 0 0 0 0 0 0 0 0 0 0 0 0 0 0 0 0 0 0 0 0 0 0 0 0 0 0 0 0 0 0 0 0 0 0 0 0 0 0
0 0 0 0 0 0 0 0 0 0 0 0 0 0 0 0 0 0 0 0 0 0 0 0 0 0 0 0 0 0 0 0 0 0 0 0 0 0 0 0 0 0 0
0 0 0 0 0 0 0 0 0 0 0 0 0 0 0 0 0 0 0 0 0 0 0 0 0 0 0 0 0 0 0 0 0 0 0 0 0 0 0 0 0 0 0
0 0 0 0 0 0 0 0 0 0 0 -0 -0 0 0 0 0 0 0 0 0 0 0 0 0 0 0 0 0 0 0 0 0 0 0 0 0 0 0 0 0 0 0
0 0 0 0 0 0 0 0 0 0 -0 -0 -0 0 0 0 0 0 0 0 0 0 0 0 0 0 0 0 0 0 0 0 0 0 0 0 0 0 0 0 0 0 0
0 0 0 0 0 0 0 0 -0 -0 -0 -0 -0 -0 0 0 0 0 0 0 0 0 0 0 0 0 0 0 0 0 0 0 0 0 0 0 0 0 0 0 0 0 0
0 0 0 0 0 0 0 0 0 0 0 0 0 0 0 0 0 0 0 0 0 0 0 0 0 0 0 0 0 0 0 0 0 0 0 0 0 0 0 0 0 0 0
0 0 0 0 0 0 0 0 0 0 0 0 0 0 0 0 0 0 0 0 0 0 0 0 0 0 0 0 0 0 0 0 0 0 0 0 0 0 0 0 0 0 0
0 0 0 0 0 0 0 0 0 0 0 0 0 0 0 0 0 0 0 0 0 0 0 0 0 0 0 0 0 0 0 0 0 0 0 0 0 0 0 0 0 0 0
0 0 0 0 0 0 0 0 0 0 0 0 0 0 0 0 0 0 0 0 0 0 0 0 0 0 0 0 0 0 0 0 0 0 0 0 0 0 0 0 0 0 0
0 0 0 0 0 0 0 0 0 0 0 0 0 0 0 0 0 0 0 0 0 0 0 0 0 0 0 0 0 0 0 0 0 0 0 0 0 0 0 0 0 0 0
0 0 0 0 0 0 0 0 0 0 0 0 0 0 0 0 0 0 0 0 0 0 0 0 0 0 0 0 0 0 0 0 0 0 0 0 0 0 0 0 0 0 0
0 0 0 0 0 0 0 0 0 0 0 0 0 0 0 0 0 0 0 0 0 0 0 0 0 0 0 0 0 0 0 0 0 0 0 0 0 0 0 0 0 0 0
0 0 0 0 0 0 0 0 0 0 0 0 0 0 0 0 0 0 0 0 0 0 0 0 0 0 0 0 0 0 0 0 0 0 0 0 0 0 0 0 0 0 0
0 0 0 0 0 0 0 0 0 0 0 0 0 0 0 0 0 0 0 0 0 0 0 0 0 0 0 0 0 0 0 0 0 0 0 0 0 0 0 0 0 0 0
0 0 0 0 0 0 0 0 0 0 0 0 0 0 0 0 0 0 0 0 0 0 0 0 0 0 0 0 0 0 0 0 0 0 0 0 0 0 0 0 0 0 0
0 0 0 0 0 0 0 0 0 0 0 0 0 0 0 0 0 0 0 0 0 0 0 0 0 0 0 0 0 0 0 0 0 0 0 0 0 0 0 0 0 0 0
Wind_Speed
5 4 4 3 4 4 3 3 2 2 3 3 2 3 4 4 4 4 3 4 4 4 4 5 5 4 4 3 3 3 3 3 2 2 2 3 3 4 4 3 2 1 1
6 5 5 4 4 4 4 2 1 1 2 3 3 3 4 4 4 3 3 3 4 4 5 5 5 4 5 4 3 4 3 3 2 3 3 3 3 3 3 4 4 3 2
5 5 5 5 4 4 4 2 1 2 2 3 3 3 4 4 3 2 2 3 3 3 4 5 5 5 5 4 4 4 3 4 2 2 3 2 3 3 3 4 5 3 4
6 5 5 5 4 4 3 3 2 3 2 2 3 3 4 4 4 3 3 3 3 3 4 4 5 5 5 5 5 5 4 4 3 3 2 2 3 3 3 4 4 4 4
7 6 5 5 5 4 4 3 2 2 3 3 3 4 4 4 5 6 5 3 3 3 3 4 4 5 6 5 4 4 4 3 3 3 3 3 3 3 3 3 4 4 4
7 6 5 5 5 5 4 3 3 3 3 4 4 4 5 5 7 9 7 5 3 3 2 2 3 4 5 5 5 5 4 3 3 3 3 3 3 3 3 4 3 4 4
8 7 6 6 5 5 5 4 3 3 3 3 4 4 5 4 6 7 8 4 3 3 3 3 3 4 5 4 5 5 4 4 3 2 3 4 3 3 4 4 4 4 4
9 8 7 7 6 5 5 4 4 3 3 3 3 4 3 3 4 5 6 4 2 2 2 3 3 4 5 5 5 4 3 3 3 2 2 3 3 3 3 4 5 5 5
9 9 8 8 7 6 5 5 3 3 3 3 3 3 3 2 2 3 4 2 2 2 2 4 4 4 6 8 5 5 5 4 4 5 7 7 8 9 6 3 4 3 5
10 9 9 8 7 7 6 4 4 3 3 3 3 2 3 3 3 2 2 2 2 2 1 2 4 3 4 6 4 4 5 5 5 6 6 7 6 7 7 3 2 3 4
9 9 8 8 7 6 5 4 4 3 3 3 3 2 3 4 4 3 2 1 2 2 2 1 1 2 3 5 5 3 5 6 5 5 5 5 4 3 3 3 2 2 3
9 9 8 8 7 7 6 4 4 4 3 2 2 3 2 3 4 3 2 1 2 2 2 1 1 3 5 6 5 6 9 7 4 4 4 4 4 3 3 3 4 3 4
10 9 8 7 6 6 6 5 4 4 3 3 2 2 2 2 3 4 3 1 2 1 1 3 4 6 7 6 7 9 7 3 3 3 4 4 4 4 3 3 4 4 4
10 9 8 8 6 6 5 5 4 4 3 3 3 2 2 2 2 2 2 2 2 2 2 4 6 7 6 6 6 5 3 3 3 3 4 4 4 3 3 3 3 3 4
10 8 8 7 7 6 5 4 4 4 4 4 3 2 2 2 3 4 3 2 1 1 2 2 2 3 3 3 3 3 3 2 3 3 3 4 4 4 4 3 3 3 4
9 8 6 6 5 5 5 4 3 4 7 7 5 4 2 4 5 4 4 3 2 2 1 2 3 3 3 3 3 3 3 3 3 3 3 3 4 4 4 4 3 4 5
8 7 6 6 6 5 5 5 4 3 4 6 6 6 5 5 6 5 5 4 4 3 2 3 4 4 4 3 3 3 3 3 3 3 3 4 4 4 4 4 4 4 5
7 8 7 5 5 5 5 5 4 5 4 3 6 10 10 9 9 8 6 2 3 3 3 4 4 4 4 3 3 3 3 3 3 3 3 4 4 4 4 5 5 6 6
6 5 5 5 5 5 4 4 4 4 4 3 3 5 10 9 9 8 5 3 4 4 4 4 4 4 4 3 3 3 3 3 3 3 3 4 4 4 4 5 6 8 8
5 8 7 5 5 4 4 4 4 4 4 4 4 4 4 4 3 4 5 4 5 5 4 4 3 3 3 3 3 3 3 3 3 3 4 4 4 4 5 6 6 6 7
5 7 9 6 4 4 4 4 4 4 4 4 3 4 6 4 5 5 4 5 5 5 4 3 3 3 3 2 2 3 3 3 3 3 4 4 4 4 4 5 6 7 7
5 5 5 4 4 4 4 4 3 3 4 4 3 3 6 4 3 3 3 3 4 4 3 3 3 2 2 2 2 2 3 3 3 3 3 4 4 5 5 5 6 7 7
4 5 4 4 3 4 4 3 3 3 3 3 3 2 3 3 3 3 3 3 2 2 2 2 2 2 2 2 2 2 3 3 3 3 3 4 5 5 5 6 8 9 9
3 4 4 4 3 3 3 3 3 3 3 2 2 2 2 2 2 2 2 2 1 2 1 2 2 3 4 3 2 2 2 2 2 2 4 5 6 5 6 7 8 10 10
3 3 3 3 2 2 2 2 2 2 2 2 1 1 1 1 1 1 1 1 2 2 2 2 2 3 4 5 4 2 2 3 4 4 4 5 6 7 8 9 9 10 10
2 2 2 2 2 2 2 2 2 2 2 2 1 1 1 1 1 1 1 1 2 2 2 2 3 4 5 4 4 4 5 5 6 7 5 5 7 7 8 8 11 10 11
Wind_Direction
150 146 140 126 118 114 94 83 66 105 120 106 77 91 97 82 76 63 46 37 34 42 45 55 45 39 25 18 23 22 22 35 35 336 353 352 9 7 351 344 340 318 278
154 151 145 133 135 131 125 133 143 94 102 105 83 73 80 75 74 70 51 44 46 44 46 51 43 38 29 23 22 20 16 17 34 351 339 349 355 346 343 339 340 347 339
153 149 142 143 145 139 138 135 118 96 84 99 99 86 81 76 73 71 66 46 58 59 54 52 45 42 31 17 20 20 8 8 7 358 327 331 336 342 350 340 342 338 332
152 150 145 146 141 132 117 114 96 94 85 76 91 84 77 69 48 35 43 42 46 62 71 65 53 52 37 15 19 12 7 1 352 351 334 330 338 340 2 348 339 336 326
155 155 148 140 129 119 111 103 90 89 92 75 78 78 70 64 44 33 17 22 34 45 65 78 76 68 55 39 26 7 3 359 351 351 342 345 347 353 347 335 335 324 317
153 150 140 136 128 126 125 118 100 81 75 74 70 72 66 62 51 41 22 2 11 23 50 75 97 78 52 32 15 6 4 4 358 351 340 343 334 337 339 334 335 338 322
156 150 144 141 134 136 133 121 116 106 90 81 77 83 82 72 56 39 18 355 359 13 24 37 48 63 51 19 357 351 341 339 339 333 341 331 329 332 336 331 325 316 293
159 153 150 145 140 136 133 138 144 134 123 112 104 104 102 84 66 36 5 347 351 8 22 38 51 56 41 29 1 343 329 326 310 328 307 304 313 310 309 304 297 299 296
162 157 156 151 150 151 154 159 153 139 134 132 128 128 124 110 96 46 12 338 334 348 38 47 51 60 36 25 5 343 337 330 326 329 316 304 300 297 295 311 312 316 306
161 156 154 153 153 156 158 153 139 135 140 137 142 154 146 137 137 101 33 347 338 350 37 66 62 62 33 17 2 346 336 329 333 322 309 301 293 287 285 260 265 295 304
147 145 146 148 151 151 147 139 136 137 143 151 154 157 145 142 145 141 111 49 348 346 358 12 21 24 7 346 338 319 304 313 315 310 307 304 301 295 287 275 268 265 284
138 141 145 147 152 146 140 143 145 144 152 171 171 175 166 149 144 158 171 238 324 339 335 350 334 334 326 315 309 298 306 315 308 308 308 309 308 303 296 291 291 281 262
139 143 147 146 143 144 148 154 154 156 168 184 182 183 180 153 155 163 176 252 314 308 305 315 305 297 302 295 286 293 303 301 297 302 300 295 290 287 296 301 301 300 296
149 152 154 153 152 153 156 161 163 170 181 186 183 188 176 159 153 163 191 224 251 269 276 287 289 284 283 285 290 287 265 262 272 276 285 289 300 306 303 299 301 306 306
154 158 161 158 158 162 162 166 168 169 171 172 179 176 170 184 186 173 171 191 208 236 294 290 281 278 277 278 280 278 274 279 278 277 282 292 300 301 294 290 289 295 294
160 164 162 159 159 162 158 160 163 169 174 174 172 172 174 177 175 180 190 206 230 258 284 268 272 271 274 279 285 289 290 288 284 285 288 287 290 294 295 294 288 286 288
162 161 156 159 163 166 164 166 176 197 204 206 207 206 208 205 203 207 216 233 255 253 238 249 258 265 269 272 273 274 278 281 287 293 294 295 296 298 299 299 297 292 288
157 159 155 156 159 168 171 174 176 180 193 223 226 223 220 221 224 226 223 214 251 233 228 240 250 256 260 264 266 269 274 282 285 287 291 296 300 303 305 305 303 301 297
157 155 157 156 160 168 171 176 183 188 189 195 196 212 218 222 230 234 213 209 232 240 237 238 241 246 250 256 261 264 268 272 279 285 292 296 298 301 300 298 298 300 299
157 159 157 158 165 169 173 180 188 192 195 196 202 202 183 181 207 218 209 218 230 240 241 243 247 250 251 253 257 263 271 277 285 284 285 287 289 290 294 297 299 300 296
155 162 168 173 176 175 177 186 191 194 201 205 207 197 178 187 206 214 213 215 224 235 241 243 247 253 252 254 259 269 276 279 279 282 285 288 290 293 294 294 296 296 297
160 161 171 176 173 174 180 187 191 196 204 208 209 203 196 192 206 215 221 225 225 226 228 229 239 242 241 246 255 265 273 278 284 290 293 295 296 294 294 294 294 295 296
159 160 166 175 176 182 189 191 191 195 203 209 202 197 198 206 210 214 222 228 230 235 233 226 237 254 257 250 245 249 261 269 274 286 294 294 292 292 291 291 293 295 294
161 163 164 170 175 179 182 190 195 197 200 206 209 207 207 210 217 224 227 233 236 240 239 236 243 258 270 272 262 252 247 261 287 289 292 290 290 288 288 289 289 290 291
158 156 155 160 167 174 180 186 193 199 203 206 211 215 221 219 224 233 238 241 248 251 260 260 257 263 275 282 281 273 280 289 291 294 290 283 283 284 285 286 287 288 288
142 142 146 150 157 166 175 187 196 201 206 204 202 203 214 234 243 242 242 245 252 256 260 261 268 275 279 275 274 279 282 284 285 287 286 282 281 281 284 284 286 287 287